Meadow Lake, CO

2:19 AM MDT on April 21, 2018 (GMT -0600)
Meadow Lake

Weather History for KFLY - March, 2014

Change the Weather History Date:

Tuesday, March 18, 2014

  Actual Average (KCOS) Record (KCOS)
Temperature  
Mean Temperature 28 °F -  
Max Temperature 33 °F 51 °F 80 °F (2017)
Min Temperature 22 °F 25 °F -6 °F (1965)
Degree Days  
Heating Degree Days 38    
Moisture  
Dew Point 16 °F    
Average Humidity 61    
Maximum Humidity 86    
Minimum Humidity 30    
Precipitation  
Precipitation 0.00 in - - ()
Sea Level Pressure  
Sea Level Pressure 29.75 in    
Wind  
Wind Speed 15 mph (NNW)    
Max Wind Speed 38 mph    
Max Gust Speed 55 mph    
Visibility 9 miles    
Events Snow    
Averages and records for this station are not official NWS values.
T = Trace of Precipitation, MM = Missing Value Source: NWS Daily Summary

Daily Weather History Graph

Daily Weather History Graph

Search for Another Location

Airport or City:

Astronomy

Mar. 18, 2014 Rise Set
Actual Time 7:04 AM MDT 7:08 PM MDT
Civil Twilight 6:38 AM MDT 7:34 PM MDT
Nautical Twilight 6:07 AM MDT 8:06 PM MDT
Astronomical Twilight 5:35 AM MDT 8:37 PM MDT
Moon 9:26 PM MDT (3/18) 7:56 AM MDT (3/18)
Length of Visible Light 12h 56m
Length of Day
12h 03m
Waning Gibbous, 96% of the Moon is Illuminated
Mar 18
Waning Gibbous
Mar 23
Last Quarter
Mar 30
New
Apr 7
First Quarter
Apr 15
Full

Hourly Weather History & Observations

Time (MDT) Temp. Windchill Dew Point Humidity Pressure Visibility Wind Dir Wind Speed Gust Speed Precip Events Conditions
12:10 AM 31.3 °F 22.7 °F 26.6 °F 83% 29.48 in 10.0 mi NNE 10.4 mph - N/A   Clear
12:30 AM 30.7 °F 22.0 °F 27.1 °F 86% 29.48 in 10.0 mi North 10.4 mph - N/A   Clear
12:50 AM 30.7 °F 21.4 °F 27.1 °F 86% 29.48 in 10.0 mi North 11.5 mph - N/A   Clear
1:10 AM 30.2 °F 20.2 °F 26.6 °F 86% 29.48 in 10.0 mi North 12.7 mph - N/A   Clear
1:30 AM 30.2 °F 19.8 °F 25.7 °F 83% 29.48 in 10.0 mi North 13.8 mph 20.7 mph N/A   Clear
1:50 AM 30.2 °F 19.8 °F 25.2 °F 82% 29.48 in 10.0 mi NNW 13.8 mph - N/A   Clear
2:10 AM 29.8 °F 20.9 °F 24.4 °F 80% 29.48 in 10.0 mi NNW 10.4 mph - N/A   Clear
2:30 AM 29.8 °F 22.2 °F 23.9 °F 79% 29.48 in 10.0 mi NNW 8.1 mph 19.6 mph N/A   Clear
2:50 AM 30.0 °F 20.0 °F 22.5 °F 73% 29.48 in 10.0 mi NW 12.7 mph 18.4 mph N/A   Clear
3:10 AM 30.2 °F 20.8 °F 17.2 °F 59% 29.46 in 10.0 mi WNW 11.5 mph - N/A   Clear
3:30 AM 30.6 °F 20.7 °F 6.3 °F 36% 29.47 in 10.0 mi WNW 12.7 mph - N/A   Clear
3:50 AM 30.6 °F 23.1 °F 5.2 °F 34% 29.48 in 10.0 mi North 8.1 mph - N/A   Clear
4:10 AM 28.9 °F 19.8 °F 7.2 °F 40% 29.49 in 10.0 mi WNW 10.4 mph - N/A   Clear
4:30 AM 29.5 °F 19.9 °F 1.6 °F 30% 29.48 in 10.0 mi NW 11.5 mph 21.9 mph N/A   Clear
4:50 AM 26.6 °F 20.0 °F 2.1 °F 35% 29.49 in 10.0 mi NNW 5.8 mph - N/A   Clear
5:10 AM 27.0 °F 21.6 °F 2.8 °F 36% 29.50 in 10.0 mi North 4.6 mph - N/A   Clear
5:30 AM 25.7 °F 20.1 °F 2.7 °F 37% 29.51 in 10.0 mi NNE 4.6 mph - N/A   Clear
5:50 AM 22.6 °F - 5.7 °F 48% 29.52 in 10.0 mi Calm Calm - N/A   Clear
6:10 AM 23.9 °F 15.0 °F 5.2 °F 45% 29.52 in 10.0 mi NW 8.1 mph - N/A   Clear
6:30 AM 27.3 °F 17.1 °F 3.7 °F 37% 29.53 in 10.0 mi NW 11.5 mph - N/A   Clear
6:50 AM 27.3 °F 19.9 °F 4.3 °F 37% 29.54 in 10.0 mi NW 6.9 mph 18.4 mph N/A   Clear
7:10 AM 27.0 °F 19.5 °F 4.8 °F 39% 29.56 in 10.0 mi NNW 6.9 mph - N/A   Clear
7:30 AM 28.8 °F 20.2 °F 5.4 °F 37% 29.56 in 10.0 mi NNW 9.2 mph - N/A   Clear
7:50 AM 31.1 °F 20.5 °F 4.8 °F 33% 29.57 in 10.0 mi NNW 15.0 mph 20.7 mph N/A   Clear
8:10 AM 32.4 °F 23.0 °F 5.9 °F 33% 29.59 in 10.0 mi NNW 12.7 mph 23.0 mph N/A   Clear
8:30 AM 32.2 °F 19.1 °F 8.6 °F 37% 29.61 in 10.0 mi North 24.2 mph 33.4 mph N/A   Clear
8:50 AM 28.9 °F 14.3 °F 17.4 °F 62% 29.63 in 7.0 mi North 26.5 mph 44.9 mph N/A   Scattered Clouds
9:10 AM 28.9 °F 13.2 °F 19.0 °F 67% 29.63 in 4.0 mi NNW 31.1 mph 44.9 mph N/A   Haze
9:30 AM 28.4 °F 14.4 °F 21.4 °F 75% 29.64 in 1.5 mi NNW 23.0 mph 40.3 mph N/A Snow Light Snow
9:50 AM 28.2 °F 10.9 °F 19.0 °F 68% 29.65 in 2.5 mi NNW 38.0 mph 55.2 mph N/A   Haze
10:10 AM 27.3 °F 11.0 °F 17.6 °F 67% 29.66 in 5.0 mi North 31.1 mph 52.9 mph N/A   Haze
10:30 AM 28.9 °F 13.2 °F 19.0 °F 67% 29.67 in 4.0 mi North 31.1 mph 47.2 mph N/A   Haze
10:50 AM 29.5 °F 13.1 °F 19.2 °F 66% 29.69 in 4.0 mi North 35.7 mph 48.3 mph N/A   Haze
11:10 AM 29.1 °F 12.6 °F 20.3 °F 70% 29.71 in 1.5 mi NNW 35.7 mph 49.5 mph N/A Snow Light Snow
11:30 AM 30.6 °F 15.7 °F 19.8 °F 64% 29.72 in 4.0 mi NNW 29.9 mph 46.0 mph N/A Snow Light Snow
11:50 AM 29.3 °F 13.0 °F 22.1 °F 75% 29.73 in 0.2 mi North 34.5 mph 46.0 mph N/A Snow Light Snow
12:10 PM 30.6 °F 15.4 °F 20.7 °F 67% 29.75 in 5.0 mi North 31.1 mph 46.0 mph N/A Snow Light Snow
12:30 PM 30.2 °F 15.2 °F 21.6 °F 70% 29.77 in 1.8 mi North 29.9 mph 47.2 mph N/A Snow Light Snow
12:50 PM 32.0 °F 17.0 °F 19.8 °F 61% 29.79 in 7.0 mi North 33.4 mph 44.9 mph N/A Snow Light Snow
1:10 PM 30.4 °F 15.4 °F 21.4 °F 69% 29.80 in 2.0 mi North 29.9 mph 50.6 mph N/A Snow Light Snow
1:30 PM 30.6 °F 14.6 °F 18.5 °F 61% 29.81 in 10.0 mi North 35.7 mph 44.9 mph N/A   Overcast
1:50 PM 29.8 °F 14.7 °F 18.9 °F 64% 29.84 in 10.0 mi North 29.9 mph 43.7 mph N/A   Overcast
2:10 PM 28.2 °F 13.3 °F 18.7 °F 67% 29.86 in 7.0 mi North 26.5 mph 34.5 mph N/A   Overcast
2:30 PM 28.2 °F 13.9 °F 17.4 °F 64% 29.88 in 10.0 mi North 24.2 mph 34.5 mph N/A   Overcast
2:50 PM 28.6 °F 13.2 °F 17.2 °F 63% 29.89 in 10.0 mi North 28.8 mph 35.7 mph N/A   Overcast
3:10 PM 30.9 °F 16.7 °F 16.2 °F 54% 29.89 in 10.0 mi North 27.6 mph 34.5 mph N/A   Overcast
3:30 PM 32.7 °F 19.6 °F 15.1 °F 48% 29.89 in 10.0 mi North 25.3 mph 35.7 mph N/A   Overcast
3:50 PM 33.6 °F 20.5 °F 15.8 °F 48% 29.90 in 10.0 mi North 26.5 mph 35.7 mph N/A   Overcast
4:10 PM 31.1 °F 18.6 °F 16.9 °F 56% 29.92 in 10.0 mi North 20.7 mph 33.4 mph N/A   Overcast
4:30 PM 31.8 °F 20.2 °F 17.4 °F 55% 29.92 in 10.0 mi North 18.4 mph 29.9 mph N/A Snow Light Snow
4:50 PM 30.7 °F 18.1 °F 18.3 °F 60% 29.94 in 7.0 mi North 20.7 mph 28.8 mph N/A Snow Light Snow
5:10 PM 31.5 °F 18.8 °F 16.7 °F 54% 29.94 in 10.0 mi North 21.9 mph 29.9 mph N/A   Mostly Cloudy
5:30 PM 30.9 °F 19.1 °F 16.2 °F 54% 29.95 in 10.0 mi North 18.4 mph 26.5 mph N/A   Scattered Clouds
5:50 PM 30.2 °F 18.1 °F 15.8 °F 55% 29.97 in 10.0 mi North 18.4 mph 25.3 mph N/A   Scattered Clouds
6:10 PM 29.5 °F 19.9 °F 14.9 °F 55% 29.98 in 10.0 mi North 11.5 mph 20.7 mph N/A   Clear
6:30 PM 28.9 °F 16.5 °F 15.6 °F 58% 29.97 in 10.0 mi North 18.4 mph 25.3 mph N/A   Clear
6:50 PM 27.5 °F 15.0 °F 16.3 °F 63% 29.97 in 10.0 mi North 17.3 mph 24.2 mph N/A   Clear
7:10 PM 26.2 °F 15.2 °F 16.2 °F 66% 29.98 in 10.0 mi North 12.7 mph 19.6 mph N/A   Clear
7:30 PM 25.7 °F 13.5 °F 15.8 °F 66% 30.00 in 10.0 mi NNE 15.0 mph 18.4 mph N/A   Clear
7:50 PM 25.3 °F 15.3 °F 16.0 °F 68% 30.00 in 10.0 mi North 10.4 mph - N/A   Scattered Clouds
8:10 PM 24.8 °F 17.9 °F 15.8 °F 69% 30.02 in 10.0 mi North 5.8 mph - N/A   Scattered Clouds
8:30 PM 24.6 °F 16.7 °F 16.5 °F 71% 30.04 in 10.0 mi NW 6.9 mph - N/A   Scattered Clouds
8:50 PM 25.2 °F 16.5 °F 17.2 °F 72% 30.05 in 10.0 mi NNW 8.1 mph - N/A   Mostly Cloudy
9:10 PM 25.0 °F 15.5 °F 16.9 °F 71% 30.06 in 10.0 mi NNW 9.2 mph - N/A   Overcast
9:30 PM 24.6 °F 15.8 °F 16.7 °F 72% 30.06 in 10.0 mi NNW 8.1 mph - N/A   Overcast
9:50 PM 24.1 °F 15.2 °F 16.0 °F 71% 30.06 in 10.0 mi NNW 8.1 mph - N/A   Overcast
10:10 PM 23.4 °F 16.2 °F 16.0 °F 73% 30.06 in 10.0 mi NNW 5.8 mph - N/A   Mostly Cloudy
10:30 PM 22.8 °F 13.6 °F 16.2 °F 76% 30.08 in 10.0 mi NNW 8.1 mph - N/A   Scattered Clouds
10:50 PM 22.5 °F 14.1 °F 16.5 °F 78% 30.08 in 10.0 mi NNW 6.9 mph - N/A   Clear
11:10 PM 23.0 °F 13.9 °F 16.3 °F 76% 30.08 in 10.0 mi NNW 8.1 mph - N/A   Clear
11:30 PM 23.0 °F 14.7 °F 16.2 °F 75% 30.08 in 10.0 mi NNW 6.9 mph - N/A   Clear
11:50 PM 23.5 °F 16.4 °F 16.5 °F 75% 30.08 in 10.0 mi NNW 5.8 mph - N/A   Mostly Cloudy